KZR992 UACC-UAAA

Flight info

Callsign KZR992
Flight time 1h 20m
Altitude 37000
Route BANOS W333 BLH M149 MALOD Z583 TUKTO
Aircraft A21N/M-SDE3FGHIRWY/LB1

Departure

Time 2026-04-27 17:21
Airport Nursultan Nazarbayev International Airport (UACC)

Arrival

Time 2026-04-27 18:42
Airport Almaty International Airport (UAAA)
Time Latitude Longitude Altitude Speed Heading
2026-04-27 17:04 51.02631 71.45995 1175 ft 0 kts 27°
2026-04-27 17:08 51.02626 71.45992 1175 ft 1 kts 42°
2026-04-27 17:08 51.02615 71.45976 1175 ft 2 kts 25°
2026-04-27 17:08 51.02602 71.45967 1175 ft 2 kts 27°
2026-04-27 17:09 51.02589 71.45956 1175 ft 2 kts 28°
2026-04-27 17:09 51.02575 71.45943 1175 ft 2 kts 49°
2026-04-27 17:09 51.02568 71.45922 1175 ft 2 kts 79°
2026-04-27 17:09 51.02569 71.45898 1175 ft 2 kts 111°
2026-04-27 17:10 51.02574 71.45884 1175 ft 0 kts 131°
2026-04-27 17:10 51.02579 71.45876 1175 ft 0 kts 134°
2026-04-27 17:10 51.02580 71.45876 1175 ft 0 kts 134°
2026-04-27 17:10 51.02579 71.45876 1175 ft 0 kts 134°
2026-04-27 17:13 51.02577 71.45880 1175 ft 1 kts 134°
2026-04-27 17:13 51.02568 71.45893 1175 ft 2 kts 134°
2026-04-27 17:14 51.02555 71.45915 1175 ft 3 kts 134°
2026-04-27 17:14 51.02535 71.45946 1175 ft 4 kts 134°
2026-04-27 17:14 51.02511 71.45985 1175 ft 5 kts 134°
2026-04-27 17:14 51.02481 71.46033 1175 ft 6 kts 134°
2026-04-27 17:15 51.02446 71.46089 1175 ft 7 kts 133°
2026-04-27 17:15 51.02407 71.46153 1175 ft 8 kts 134°
2026-04-27 17:15 51.02362 71.46224 1175 ft 9 kts 135°
2026-04-27 17:15 51.02303 71.46227 1175 ft 10 kts 219°
2026-04-27 17:16 51.02250 71.46146 1175 ft 10 kts 224°
2026-04-27 17:16 51.02194 71.46058 1175 ft 11 kts 224°
2026-04-27 17:16 51.02135 71.45966 1175 ft 12 kts 224°
2026-04-27 17:16 51.02073 71.45869 1175 ft 12 kts 224°
2026-04-27 17:17 51.02008 71.45769 1175 ft 13 kts 224°
2026-04-27 17:17 51.01941 71.45665 1175 ft 13 kts 224°
2026-04-27 17:17 51.01874 71.45558 1175 ft 13 kts 225°
2026-04-27 17:18 51.01733 71.45339 1175 ft 14 kts 224°
2026-04-27 17:18 51.01661 71.45227 1175 ft 14 kts 224°
2026-04-27 17:18 51.01588 71.45113 1175 ft 14 kts 224°
2026-04-27 17:18 51.01537 71.45033 1175 ft 14 kts 224°
2026-04-27 17:19 51.01462 71.44916 1175 ft 15 kts 224°
2026-04-27 17:19 51.01387 71.44799 1175 ft 15 kts 224°
2026-04-27 17:19 51.01323 71.44706 1175 ft 10 kts 209°
2026-04-27 17:19 51.01251 71.44715 1175 ft 11 kts 143°
2026-04-27 17:20 51.01192 71.44807 1175 ft 12 kts 134°
2026-04-27 17:20 51.01152 71.44875 1175 ft 3 kts 116°
2026-04-27 17:20 51.01165 71.44916 1175 ft 5 kts 44°
2026-04-27 17:20 51.01268 71.45077 1175 ft 53 kts 44°
2026-04-27 17:21 51.01714 71.45772 1175 ft 123 kts 44°
2026-04-27 17:21 51.02460 71.46933 1223 ft 172 kts 44°
2026-04-27 17:21 51.03325 71.48283 1734 ft 180 kts 44°
2026-04-27 17:21 51.04077 71.49881 2414 ft 186 kts 73°
2026-04-27 17:22 51.03977 71.51849 3152 ft 185 kts 112°
2026-04-27 17:22 51.03104 71.53353 3567 ft 197 kts 150°
2026-04-27 17:22 51.01796 71.54237 3955 ft 210 kts 154°
2026-04-27 17:22 51.00452 71.55270 4324 ft 224 kts 152°
2026-04-27 17:23 50.99005 71.56416 4666 ft 242 kts 153°
2026-04-27 17:23 50.97434 71.57660 5053 ft 260 kts 152°
2026-04-27 17:23 50.95782 71.58949 5574 ft 271 kts 153°
2026-04-27 17:23 50.94098 71.60246 6315 ft 275 kts 153°
2026-04-27 17:24 50.92368 71.61581 7089 ft 278 kts 153°
2026-04-27 17:24 50.90642 71.62917 7823 ft 282 kts 153°
2026-04-27 17:24 50.88868 71.64291 8540 ft 286 kts 153°
2026-04-27 17:24 50.87093 71.65668 9250 ft 290 kts 154°
2026-04-27 17:25 50.85270 71.67082 9963 ft 294 kts 154°
2026-04-27 17:25 50.83429 71.68507 10553 ft 302 kts 154°
2026-04-27 17:25 50.81506 71.69994 10910 ft 318 kts 154°
2026-04-27 17:25 50.79498 71.71542 11452 ft 326 kts 154°
2026-04-27 17:26 50.77442 71.73126 12118 ft 330 kts 154°
2026-04-27 17:26 50.75390 71.74707 12754 ft 334 kts 154°
2026-04-27 17:26 50.73284 71.76329 13376 ft 339 kts 154°
2026-04-27 17:26 50.71156 71.77966 13994 ft 343 kts 155°
2026-04-27 17:27 50.69023 71.79604 14594 ft 346 kts 155°
2026-04-27 17:27 50.66863 71.81260 15201 ft 349 kts 155°
2026-04-27 17:27 50.64656 71.82951 15786 ft 353 kts 155°
2026-04-27 17:27 50.62457 71.84634 16345 ft 357 kts 155°
2026-04-27 17:28 50.60234 71.86335 16890 ft 360 kts 155°
2026-04-27 17:28 50.57964 71.88070 17412 ft 364 kts 155°
2026-04-27 17:28 50.53393 71.91558 18468 ft 371 kts 155°
2026-04-27 17:29 50.51076 71.93323 19001 ft 373 kts 155°
2026-04-27 17:29 50.48739 71.95101 19527 ft 376 kts 155°
2026-04-27 17:29 50.46358 71.96912 20043 ft 379 kts 155°
2026-04-27 17:29 50.43988 71.98711 20548 ft 381 kts 154°
2026-04-27 17:30 50.41594 72.00526 21042 ft 384 kts 155°
2026-04-27 17:30 50.36765 72.04183 21991 ft 390 kts 154°
2026-04-27 17:30 50.34323 72.06030 22462 ft 392 kts 154°
2026-04-27 17:31 50.31871 72.07880 22922 ft 395 kts 154°
2026-04-27 17:31 50.29404 72.09742 23362 ft 397 kts 154°
2026-04-27 17:31 50.26928 72.11608 23787 ft 400 kts 154°
2026-04-27 17:31 50.24394 72.13515 24222 ft 403 kts 154°
2026-04-27 17:32 50.21876 72.15408 24667 ft 405 kts 154°
2026-04-27 17:32 50.16811 72.19208 25541 ft 408 kts 154°
2026-04-27 17:32 50.14318 72.21077 25937 ft 410 kts 154°
2026-04-27 17:33 50.11758 72.22992 26337 ft 412 kts 154°
2026-04-27 17:33 50.09190 72.24912 26736 ft 413 kts 154°
2026-04-27 17:33 50.06584 72.26856 27120 ft 415 kts 155°
2026-04-27 17:33 50.03994 72.28786 27489 ft 417 kts 155°
2026-04-27 17:34 50.01350 72.30753 27843 ft 419 kts 155°
2026-04-27 17:34 49.98716 72.32710 28196 ft 421 kts 155°
2026-04-27 17:34 49.96091 72.34660 28549 ft 423 kts 155°
2026-04-27 17:34 49.93453 72.36616 28897 ft 425 kts 155°
2026-04-27 17:35 49.90800 72.38580 29223 ft 426 kts 155°
2026-04-27 17:35 49.88113 72.40569 29547 ft 428 kts 155°
2026-04-27 17:35 49.85399 72.42574 29878 ft 430 kts 155°
2026-04-27 17:35 49.82712 72.44557 30192 ft 432 kts 155°
2026-04-27 17:36 49.79992 72.46562 30509 ft 433 kts 154°
2026-04-27 17:36 49.77294 72.48525 30856 ft 433 kts 155°
2026-04-27 17:36 49.74552 72.50548 31069 ft 437 kts 154°
2026-04-27 17:36 49.71823 72.52570 31281 ft 439 kts 154°
2026-04-27 17:37 49.69047 72.54622 31510 ft 442 kts 155°
2026-04-27 17:37 49.66294 72.56648 31738 ft 444 kts 155°
2026-04-27 17:37 49.63518 72.58683 31970 ft 445 kts 155°
2026-04-27 17:37 49.60702 72.60741 32199 ft 447 kts 155°
2026-04-27 17:38 49.57912 72.62776 32423 ft 449 kts 155°
2026-04-27 17:38 49.55074 72.64844 32638 ft 451 kts 155°
2026-04-27 17:38 49.52263 72.66888 32852 ft 452 kts 156°
2026-04-27 17:38 49.49407 72.68962 33057 ft 454 kts 156°
2026-04-27 17:39 49.46578 72.71017 33248 ft 456 kts 156°
2026-04-27 17:39 49.43692 72.73113 33480 ft 457 kts 156°
2026-04-27 17:39 49.40844 72.75178 33740 ft 457 kts 156°
2026-04-27 17:39 49.37964 72.77263 34000 ft 456 kts 156°
2026-04-27 17:40 49.35121 72.79317 34253 ft 456 kts 157°
2026-04-27 17:40 49.32234 72.81400 34470 ft 456 kts 157°
2026-04-27 17:40 49.29388 72.83448 34664 ft 457 kts 157°
2026-04-27 17:40 49.26508 72.85519 34860 ft 457 kts 157°
2026-04-27 17:41 49.23632 72.87585 35078 ft 457 kts 157°
2026-04-27 17:41 49.20780 72.89630 35278 ft 456 kts 157°
2026-04-27 17:41 49.17932 72.91670 35479 ft 456 kts 157°
2026-04-27 17:41 49.15042 72.93739 35641 ft 457 kts 157°
2026-04-27 17:42 49.12186 72.95780 35772 ft 459 kts 157°
2026-04-27 17:42 49.09276 72.97857 35909 ft 460 kts 157°
2026-04-27 17:42 49.06381 72.99920 36076 ft 462 kts 157°
2026-04-27 17:42 49.03495 73.01974 36233 ft 463 kts 157°
2026-04-27 17:43 49.00584 73.04043 36399 ft 464 kts 157°
2026-04-27 17:43 48.97668 73.06111 36568 ft 465 kts 157°
2026-04-27 17:43 48.94712 73.08202 36725 ft 466 kts 157°
2026-04-27 17:43 48.91797 73.10263 36874 ft 467 kts 157°
2026-04-27 17:44 48.88862 73.12336 37021 ft 468 kts 157°
2026-04-27 17:44 48.85886 73.14438 37186 ft 469 kts 157°
2026-04-27 17:44 48.82933 73.16520 37260 ft 470 kts 157°
2026-04-27 17:45 48.77032 73.20678 37269 ft 470 kts 157°
2026-04-27 17:45 48.71106 73.24844 37271 ft 471 kts 157°
2026-04-27 17:46 48.65187 73.28991 37269 ft 470 kts 157°
2026-04-27 17:46 48.59241 73.33144 37267 ft 470 kts 157°
2026-04-27 17:47 48.53339 73.37258 37270 ft 470 kts 157°
2026-04-27 17:47 48.47425 73.41369 37272 ft 470 kts 157°
2026-04-27 17:48 48.41513 73.45467 37263 ft 469 kts 157°
2026-04-27 17:48 48.35602 73.49553 37264 ft 469 kts 157°
2026-04-27 17:49 48.29657 73.53657 37266 ft 469 kts 157°
2026-04-27 17:49 48.23775 73.57703 37261 ft 469 kts 157°
2026-04-27 17:50 48.17860 73.61763 37258 ft 469 kts 157°
2026-04-27 17:50 48.09008 73.67821 37248 ft 467 kts 158°
2026-04-27 17:51 48.03090 73.71854 37239 ft 467 kts 158°
2026-04-27 17:51 47.97181 73.75874 37237 ft 467 kts 159°
2026-04-27 17:52 47.91310 73.79858 37235 ft 467 kts 159°
2026-04-27 17:52 47.85393 73.83862 37235 ft 467 kts 158°
2026-04-27 17:53 47.79490 73.87848 37232 ft 467 kts 159°
2026-04-27 17:53 47.73597 73.91819 37227 ft 466 kts 159°
2026-04-27 17:54 47.67735 73.95758 37219 ft 465 kts 159°
2026-04-27 17:54 47.61837 73.99707 37219 ft 465 kts 159°
2026-04-27 17:55 47.55943 74.03647 37214 ft 465 kts 159°
2026-04-27 17:55 47.50083 74.07552 37214 ft 465 kts 159°
2026-04-27 17:56 47.44193 74.11469 37223 ft 465 kts 159°
2026-04-27 17:56 47.38311 74.15374 37228 ft 464 kts 159°
2026-04-27 17:57 47.32447 74.19254 37198 ft 463 kts 159°
2026-04-27 17:57 47.26587 74.23126 37224 ft 462 kts 160°
2026-04-27 17:58 47.20768 74.26959 37202 ft 462 kts 160°
2026-04-27 17:58 47.14918 74.30801 37197 ft 461 kts 160°
2026-04-27 17:59 47.09061 74.34637 37191 ft 461 kts 160°
2026-04-27 17:59 47.03219 74.38458 37189 ft 461 kts 160°
2026-04-27 18:00 46.97364 74.42277 37182 ft 461 kts 160°
2026-04-27 18:00 46.91532 74.46070 37173 ft 461 kts 160°
2026-04-27 18:01 46.85677 74.49869 37178 ft 461 kts 160°
2026-04-27 18:01 46.79840 74.53648 37181 ft 460 kts 160°
2026-04-27 18:02 46.73998 74.57423 37175 ft 460 kts 160°
2026-04-27 18:02 46.68180 74.61176 37176 ft 460 kts 161°
2026-04-27 18:03 46.62324 74.64943 37183 ft 460 kts 161°
2026-04-27 18:03 46.56506 74.68675 37185 ft 459 kts 161°
2026-04-27 18:04 46.50658 74.72418 37181 ft 459 kts 162°
2026-04-27 18:04 46.44832 74.76136 37175 ft 459 kts 162°
2026-04-27 18:05 46.39021 74.79839 37180 ft 459 kts 162°
2026-04-27 18:05 46.33189 74.83543 37173 ft 459 kts 162°
2026-04-27 18:06 46.27345 74.87247 37162 ft 459 kts 162°
2026-04-27 18:06 46.21507 74.90942 37168 ft 458 kts 162°
2026-04-27 18:07 46.15672 74.94618 37163 ft 461 kts 162°
2026-04-27 18:07 46.09782 74.98322 37167 ft 469 kts 162°
2026-04-27 18:08 46.03749 75.02113 37150 ft 475 kts 162°
2026-04-27 18:08 45.97698 75.05910 37149 ft 475 kts 162°
2026-04-27 18:09 45.91649 75.09694 37145 ft 475 kts 162°
2026-04-27 18:09 45.85612 75.13458 37142 ft 476 kts 162°
2026-04-27 18:10 45.79561 75.17223 37140 ft 475 kts 162°
2026-04-27 18:10 45.73510 75.20978 37136 ft 475 kts 162°
2026-04-27 18:11 45.67455 75.24728 37127 ft 474 kts 162°
2026-04-27 18:11 45.61401 75.28466 37135 ft 475 kts 162°
2026-04-27 18:12 45.55370 75.32183 37136 ft 475 kts 162°
2026-04-27 18:12 45.49309 75.35908 37123 ft 475 kts 162°
2026-04-27 18:13 45.43245 75.39626 37123 ft 475 kts 162°
2026-04-27 18:13 45.37179 75.43338 37128 ft 475 kts 162°
2026-04-27 18:14 45.31155 75.47018 37126 ft 475 kts 162°
2026-04-27 18:14 45.25084 75.50716 37122 ft 474 kts 162°
2026-04-27 18:15 45.19023 75.54399 37122 ft 474 kts 162°
2026-04-27 18:15 45.12980 75.58062 37120 ft 474 kts 162°
2026-04-27 18:16 45.06917 75.61729 37115 ft 474 kts 162°
2026-04-27 18:16 45.00876 75.65372 37120 ft 475 kts 162°
2026-04-27 18:17 44.94904 75.68978 37112 ft 461 kts 162°
2026-04-27 18:17 44.89037 75.72537 36641 ft 459 kts 162°
2026-04-27 18:18 44.86130 75.74300 36079 ft 455 kts 163°
2026-04-27 18:18 44.83216 75.76064 35558 ft 452 kts 163°
2026-04-27 18:18 44.80336 75.77802 34980 ft 452 kts 163°
2026-04-27 18:18 44.77446 75.79545 34353 ft 453 kts 163°
2026-04-27 18:19 44.74587 75.81265 33691 ft 453 kts 163°
2026-04-27 18:19 44.71703 75.82997 33038 ft 451 kts 163°
2026-04-27 18:19 44.68807 75.84738 32497 ft 446 kts 163°
2026-04-27 18:19 44.66012 75.86420 32130 ft 438 kts 163°
2026-04-27 18:20 44.63216 75.88098 31709 ft 432 kts 163°
2026-04-27 18:20 44.60476 75.89740 31279 ft 428 kts 163°
2026-04-27 18:20 44.57774 75.91356 30872 ft 424 kts 163°
2026-04-27 18:20 44.55048 75.92985 30451 ft 422 kts 163°
2026-04-27 18:21 44.52397 75.94567 30008 ft 419 kts 163°
2026-04-27 18:21 44.49717 75.96163 29519 ft 416 kts 163°
2026-04-27 18:21 44.47077 75.97736 29113 ft 412 kts 163°
2026-04-27 18:21 44.44447 75.99301 28816 ft 413 kts 163°
2026-04-27 18:22 44.41795 76.00878 28246 ft 412 kts 163°
2026-04-27 18:22 44.39196 76.02422 27754 ft 409 kts 162°
2026-04-27 18:22 44.36589 76.03972 27294 ft 405 kts 163°
2026-04-27 18:22 44.34019 76.05496 26839 ft 401 kts 162°
2026-04-27 18:23 44.31444 76.07019 26385 ft 398 kts 162°
2026-04-27 18:23 44.28916 76.08516 25937 ft 394 kts 162°
2026-04-27 18:23 44.26406 76.09999 25498 ft 391 kts 162°
2026-04-27 18:23 44.23924 76.11465 25059 ft 388 kts 162°
2026-04-27 18:24 44.21449 76.12898 24613 ft 383 kts 164°
2026-04-27 18:24 44.18959 76.14115 24168 ft 378 kts 168°
2026-04-27 18:24 44.16477 76.15074 23724 ft 373 kts 171°
2026-04-27 18:24 44.13945 76.15877 23285 ft 369 kts 172°
2026-04-27 18:25 44.11450 76.16659 22860 ft 366 kts 172°
2026-04-27 18:25 44.08995 76.17423 22423 ft 364 kts 172°
2026-04-27 18:25 44.06515 76.18196 21993 ft 362 kts 172°
2026-04-27 18:25 44.04102 76.18946 21562 ft 360 kts 171°
2026-04-27 18:26 44.01673 76.19704 21114 ft 358 kts 171°
2026-04-27 18:26 43.99225 76.20465 20660 ft 356 kts 171°
2026-04-27 18:26 43.96820 76.21216 20229 ft 355 kts 171°
2026-04-27 18:26 43.94430 76.21960 19781 ft 354 kts 171°
2026-04-27 18:27 43.92031 76.22707 19337 ft 352 kts 171°
2026-04-27 18:27 43.89666 76.23441 18909 ft 351 kts 170°
2026-04-27 18:27 43.87279 76.24183 18458 ft 349 kts 170°
2026-04-27 18:27 43.84917 76.24918 18010 ft 347 kts 170°
2026-04-27 18:28 43.82571 76.25647 17597 ft 345 kts 170°
2026-04-27 18:28 43.80232 76.26372 17170 ft 343 kts 169°
2026-04-27 18:28 43.77911 76.27090 16750 ft 341 kts 169°
2026-04-27 18:28 43.75636 76.27792 16381 ft 338 kts 169°
2026-04-27 18:29 43.73344 76.28500 15997 ft 336 kts 169°
2026-04-27 18:29 43.71067 76.29204 15583 ft 335 kts 169°
2026-04-27 18:29 43.68814 76.29900 15152 ft 333 kts 168°
2026-04-27 18:29 43.66557 76.30594 14769 ft 330 kts 168°
2026-04-27 18:30 43.64326 76.31280 14392 ft 327 kts 168°
2026-04-27 18:30 43.62130 76.31962 14004 ft 326 kts 167°
2026-04-27 18:30 43.59962 76.32852 13605 ft 324 kts 160°
2026-04-27 18:30 43.57897 76.34053 13220 ft 323 kts 154°
2026-04-27 18:31 43.55889 76.35420 12806 ft 321 kts 153°
2026-04-27 18:31 43.53886 76.36811 12450 ft 322 kts 153°
2026-04-27 18:31 43.51899 76.38191 12048 ft 321 kts 153°
2026-04-27 18:31 43.49906 76.39569 11642 ft 319 kts 153°
2026-04-27 18:32 43.47936 76.40927 11285 ft 317 kts 153°
2026-04-27 18:32 43.45978 76.42275 10901 ft 315 kts 153°
2026-04-27 18:32 43.44031 76.43612 10492 ft 312 kts 152°
2026-04-27 18:32 43.42127 76.44922 10383 ft 299 kts 151°
2026-04-27 18:33 43.40407 76.46384 10263 ft 286 kts 142°
2026-04-27 18:33 43.38882 76.48160 9893 ft 284 kts 136°
2026-04-27 18:33 43.37472 76.50002 9566 ft 281 kts 135°
2026-04-27 18:33 43.36068 76.51865 9227 ft 279 kts 135°
2026-04-27 18:34 43.34688 76.53691 8898 ft 278 kts 135°
2026-04-27 18:34 43.33292 76.55527 8547 ft 276 kts 135°
2026-04-27 18:34 43.31920 76.57326 8206 ft 274 kts 135°
2026-04-27 18:34 43.30545 76.59122 7864 ft 273 kts 135°
2026-04-27 18:35 43.29177 76.60908 7522 ft 271 kts 135°
2026-04-27 18:35 43.27835 76.62659 7362 ft 260 kts 135°
2026-04-27 18:35 43.26647 76.64476 7262 ft 248 kts 120°
2026-04-27 18:35 43.26009 76.66627 6995 ft 247 kts 104°
2026-04-27 18:36 43.25631 76.68919 6675 ft 247 kts 102°
2026-04-27 18:36 43.25276 76.71214 6354 ft 246 kts 103°
2026-04-27 18:36 43.24912 76.73498 6041 ft 245 kts 103°
2026-04-27 18:36 43.24544 76.75767 5761 ft 243 kts 103°
2026-04-27 18:37 43.24171 76.78033 5489 ft 241 kts 103°
2026-04-27 18:37 43.23860 76.80207 5420 ft 229 kts 92°
2026-04-27 18:37 43.24211 76.82268 5365 ft 223 kts 62°
2026-04-27 18:37 43.25108 76.83987 5167 ft 221 kts 52°
2026-04-27 18:38 43.26055 76.85586 4974 ft 207 kts 53°
2026-04-27 18:38 43.26886 76.87110 4702 ft 195 kts 55°
2026-04-27 18:38 43.27644 76.88605 4426 ft 184 kts 57°
2026-04-27 18:38 43.28340 76.90018 4163 ft 173 kts 57°
2026-04-27 18:39 43.28983 76.91335 3935 ft 162 kts 57°
2026-04-27 18:39 43.29588 76.92566 3764 ft 150 kts 57°
2026-04-27 18:39 43.30164 76.93738 3578 ft 146 kts 56°
2026-04-27 18:39 43.30725 76.94894 3390 ft 145 kts 57°
2026-04-27 18:40 43.31291 76.96035 3203 ft 145 kts 56°
2026-04-27 18:40 43.31855 76.97164 3032 ft 144 kts 56°
2026-04-27 18:40 43.32416 76.98298 2841 ft 143 kts 56°
2026-04-27 18:40 43.32973 76.99428 2659 ft 143 kts 54°
2026-04-27 18:41 43.33535 77.00555 2469 ft 142 kts 55°
2026-04-27 18:41 43.34080 77.01660 2310 ft 142 kts 55°
2026-04-27 18:41 43.34612 77.02738 2233 ft 125 kts 54°
2026-04-27 18:41 43.35014 77.03543 2231 ft 77 kts 56°
2026-04-27 18:42 43.35239 77.03906 2235 ft 23 kts 31°
2026-04-27 18:42 43.35276 77.03934 2235 ft 0 kts 28°
2026-04-27 18:42 43.35334 77.03974 2234 ft 12 kts 26°
2026-04-27 18:42 43.35416 77.04009 2234 ft 12 kts 342°
2026-04-27 18:43 43.35419 77.03904 2232 ft 14 kts 236°
2026-04-27 18:43 43.35361 77.03786 2232 ft 16 kts 236°
2026-04-27 18:43 43.35294 77.03648 2231 ft 18 kts 236°
2026-04-27 18:43 43.35216 77.03490 2229 ft 20 kts 236°
2026-04-27 18:44 43.35134 77.03323 2227 ft 21 kts 236°
2026-04-27 18:44 43.35052 77.03159 2226 ft 20 kts 236°
2026-04-27 18:44 43.34971 77.02992 2225 ft 20 kts 236°
2026-04-27 18:44 43.34894 77.02837 2226 ft 19 kts 236°
2026-04-27 18:45 43.34821 77.02688 2227 ft 18 kts 236°
2026-04-27 18:45 43.34771 77.02539 2228 ft 17 kts 268°
2026-04-27 18:45 43.34778 77.02377 2227 ft 17 kts 274°
2026-04-27 18:45 43.34784 77.02256 2226 ft 11 kts 274°
2026-04-27 18:46 43.34788 77.02132 2224 ft 13 kts 273°
2026-04-27 18:46 43.34795 77.02001 2224 ft 14 kts 274°
2026-04-27 18:46 43.34802 77.01866 2223 ft 14 kts 274°
2026-04-27 18:46 43.34808 77.01750 2223 ft 6 kts 277°
2026-04-27 18:47 43.34846 77.01718 2222 ft 8 kts
2026-04-27 18:47 43.34907 77.01728 2221 ft 8 kts 30°
2026-04-27 18:47 43.34917 77.01812 2221 ft 9 kts 93°
2026-04-27 18:47 43.34914 77.01900 2221 ft 9 kts 94°
2026-04-27 18:48 43.34909 77.01978 2221 ft 4 kts 94°
2026-04-27 18:48 43.34898 77.02009 2221 ft 3 kts 141°
2026-04-27 18:48 43.34881 77.02014 2222 ft 2 kts 190°
2026-04-27 18:48 43.34872 77.02013 2222 ft 0 kts 185°
2026-04-27 18:49 43.34859 77.02011 2222 ft 2 kts 185°
2026-04-27 18:49 43.34856 77.02010 2222 ft 0 kts 185°